Time,TemperatureF,DewpointF,PressureIn,WindDirection,WindDirectionDegrees,WindSpeedMPH,WindSpeedGustMPH,Humidity,HourlyPrecipIn,Conditions,Clouds,dailyrainin,SoftwareType,DateUTC
2013-05-25 00:09:00,70.6,67.0,30.11,ESE,104,0.0,1.0,87,0.00,,,0.00,weatherlink.com 1.10,2013-05-25 05:09:00,
2013-05-25 00:24:00,70.0,67.0,30.11,SE,129,0.0,1.0,89,0.00,,,0.00,weatherlink.com 1.10,2013-05-25 05:24:00,
2013-05-25 00:39:00,69.5,67.0,30.12,SE,129,0.0,1.0,90,0.00,,,0.00,weatherlink.com 1.10,2013-05-25 05:39:00,
2013-05-25 00:54:00,69.4,67.0,30.12,SE,129,0.0,0.0,91,0.00,,,0.00,weatherlink.com 1.10,2013-05-25 05:54:00,
2013-05-25 01:09:00,69.4,67.0,30.12,SE,130,0.0,1.0,92,0.00,,,0.00,weatherlink.com 1.10,2013-05-25 06:09:00,
2013-05-25 01:24:00,69.0,67.0,30.12,SE,130,0.0,0.0,92,0.00,,,0.00,weatherlink.com 1.10,2013-05-25 06:24:00,
2013-05-25 01:39:00,69.3,67.0,30.11,SE,130,0.0,1.0,92,0.00,,,0.00,weatherlink.com 1.10,2013-05-25 06:39:00,
2013-05-25 01:54:00,69.5,67.0,30.11,SE,129,0.0,1.0,90,0.00,,,0.00,weatherlink.com 1.10,2013-05-25 06:54:00,
2013-05-25 02:09:00,69.6,66.0,30.10,SE,130,0.0,0.0,89,0.00,,,0.00,weatherlink.com 1.10,2013-05-25 07:09:00,
2013-05-25 02:24:00,69.5,67.0,30.10,SE,129,0.0,1.0,90,0.00,,,0.00,weatherlink.com 1.10,2013-05-25 07:24:00,
2013-05-25 02:39:00,69.5,67.0,30.10,SE,129,0.0,0.0,91,0.00,,,0.00,weatherlink.com 1.10,2013-05-25 07:39:00,
2013-05-25 02:54:00,69.3,67.0,30.10,SE,129,0.0,0.0,92,0.00,,,0.00,weatherlink.com 1.10,2013-05-25 07:54:00,
2013-05-25 03:10:00,69.7,67.0,30.10,SE,130,0.0,0.0,92,0.00,,,0.00,weatherlink.com 1.10,2013-05-25 08:10:00,
2013-05-25 03:24:00,69.5,67.0,30.10,SE,129,0.0,0.0,92,0.00,,,0.00,weatherlink.com 1.10,2013-05-25 08:24:00,
2013-05-25 03:39:00,69.2,67.0,30.10,SE,130,0.0,0.0,93,0.00,,,0.00,weatherlink.com 1.10,2013-05-25 08:39:00,
2013-05-25 03:54:00,69.0,67.0,30.11,SE,130,0.0,0.0,93,0.00,,,0.00,weatherlink.com 1.10,2013-05-25 08:54:00,
2013-05-25 04:09:00,69.1,67.0,30.11,SE,130,0.0,0.0,94,0.00,,,0.00,weatherlink.com 1.10,2013-05-25 09:09:00,
2013-05-25 04:24:00,69.1,67.0,30.10,SE,130,0.0,0.0,94,0.00,,,0.00,weatherlink.com 1.10,2013-05-25 09:24:00,
2013-05-25 04:39:00,69.2,68.0,30.11,SE,129,0.0,1.0,94,0.00,,,0.00,weatherlink.com 1.10,2013-05-25 09:39:00,
2013-05-25 04:54:00,69.8,68.0,30.11,ESE,122,1.0,1.0,94,0.00,,,0.00,weatherlink.com 1.10,2013-05-25 09:54:00,
2013-05-25 05:09:00,70.0,68.0,30.11,East,90,1.0,2.0,93,0.00,,,0.00,weatherlink.com 1.10,2013-05-25 10:09:00,
2013-05-25 05:24:00,70.2,68.0,30.11,ENE,64,1.0,2.0,92,0.00,,,0.00,weatherlink.com 1.10,2013-05-25 10:24:00,
2013-05-25 05:39:00,70.3,68.0,30.11,ENE,74,1.0,1.0,92,0.00,,,0.00,weatherlink.com 1.10,2013-05-25 10:39:00,
2013-05-25 05:55:00,69.9,68.0,30.12,ENE,74,0.0,0.0,92,0.00,,,0.00,weatherlink.com 1.10,2013-05-25 10:55:00,
2013-05-25 06:10:00,69.9,68.0,30.12,ENE,74,0.0,1.0,93,0.00,,,0.00,weatherlink.com 1.10,2013-05-25 11:10:00,
2013-05-25 06:25:00,69.5,68.0,30.13,ENE,74,0.0,0.0,93,0.00,,,0.00,weatherlink.com 1.10,2013-05-25 11:25:00,
2013-05-25 06:40:00,69.4,67.0,30.13,ENE,74,1.0,1.0,93,0.00,,,0.00,weatherlink.com 1.10,2013-05-25 11:40:00,
2013-05-25 06:55:00,70.2,68.0,30.13,East,84,2.0,3.0,92,0.00,,,0.00,weatherlink.com 1.10,2013-05-25 11:55:00,
2013-05-25 07:10:00,71.6,69.0,30.14,ENE,77,2.0,4.0,90,0.00,,,0.00,weatherlink.com 1.10,2013-05-25 12:10:00,
2013-05-25 07:25:00,72.5,69.0,30.14,East,92,2.0,5.0,89,0.00,,,0.00,weatherlink.com 1.10,2013-05-25 12:25:00,
2013-05-25 07:40:00,73.6,70.0,30.15,East,99,2.0,5.0,89,0.00,,,0.00,weatherlink.com 1.10,2013-05-25 12:40:00,
2013-05-25 07:55:00,74.6,71.0,30.15,ESE,103,3.0,7.0,88,0.00,,,0.00,weatherlink.com 1.10,2013-05-25 12:55:00,
2013-05-25 08:10:00,75.5,72.0,30.15,NE,55,4.0,7.0,88,0.00,,,0.00,weatherlink.com 1.10,2013-05-25 13:10:00,
2013-05-25 08:25:00,76.8,73.0,30.15,ESE,117,3.0,6.0,87,0.00,,,0.00,weatherlink.com 1.10,2013-05-25 13:25:00,
2013-05-25 08:40:00,77.5,73.0,30.15,East,98,5.0,6.0,86,0.00,,,0.00,weatherlink.com 1.10,2013-05-25 13:40:00,
2013-05-25 08:56:00,78.6,73.0,30.15,East,88,2.0,7.0,84,0.00,,,0.00,weatherlink.com 1.10,2013-05-25 13:56:00,
2013-05-25 09:10:00,79.4,74.0,30.16,East,86,3.0,7.0,84,0.00,,,0.00,weatherlink.com 1.10,2013-05-25 14:10:00,
2013-05-25 09:25:00,80.1,74.0,30.16,East,98,4.0,9.0,81,0.00,,,0.00,weatherlink.com 1.10,2013-05-25 14:25:00,
2013-05-25 09:40:00,81.0,75.0,30.16,ESE,119,2.0,7.0,81,0.00,,,0.00,weatherlink.com 1.10,2013-05-25 14:40:00,
2013-05-25 09:55:00,81.5,75.0,30.16,SE,145,2.0,6.0,81,0.00,,,0.00,weatherlink.com 1.10,2013-05-25 14:55:00,
2013-05-25 10:10:00,81.8,75.0,30.16,SE,128,3.0,6.0,79,0.00,,,0.00,weatherlink.com 1.10,2013-05-25 15:10:00,
2013-05-25 10:25:00,81.8,75.0,30.17,East,93,2.0,6.0,80,0.00,,,0.00,weatherlink.com 1.10,2013-05-25 15:25:00,
2013-05-25 10:40:00,82.0,75.0,30.17,East,99,1.0,5.0,79,0.00,,,0.00,weatherlink.com 1.10,2013-05-25 15:40:00,
2013-05-25 10:55:00,82.3,76.0,30.17,East,88,0.0,5.0,80,0.00,,,0.00,weatherlink.com 1.10,2013-05-25 15:55:00,
2013-05-25 11:10:00,82.7,74.0,30.17,ESE,105,3.0,5.0,76,0.00,,,0.00,weatherlink.com 1.10,2013-05-25 16:10:00,
2013-05-25 11:25:00,83.1,75.0,30.17,East,96,4.0,6.0,76,0.00,,,0.00,weatherlink.com 1.10,2013-05-25 16:25:00,
2013-05-25 11:41:00,84.0,74.0,30.16,East,87,1.0,7.0,72,0.00,,,0.00,weatherlink.com 1.10,2013-05-25 16:41:00,
2013-05-25 11:56:00,85.4,75.0,30.16,SSE,147,3.0,8.0,70,0.00,,,0.00,weatherlink.com 1.10,2013-05-25 16:56:00,
2013-05-25 12:11:00,85.7,76.0,30.16,East,101,3.0,5.0,72,0.00,,,0.00,weatherlink.com 1.10,2013-05-25 17:11:00,
2013-05-25 12:26:00,86.4,76.0,30.16,ESE,117,2.0,-999.0,70,-99.99,,,0.00,weatherlink.com 1.10,2013-05-25 17:26:00,
2013-05-25 12:41:00,86.0,75.0,30.16,ESE,117,2.0,5.0,69,0.00,,,0.00,weatherlink.com 1.10,2013-05-25 17:41:00,
2013-05-25 12:56:00,85.8,75.0,30.16,South,174,4.0,4.0,70,0.00,,,0.00,weatherlink.com 1.10,2013-05-25 17:56:00,
2013-05-25 13:11:00,86.2,75.0,30.15,ESE,116,3.0,6.0,70,0.00,,,0.00,weatherlink.com 1.10,2013-05-25 18:11:00,
2013-05-25 13:26:00,86.2,74.0,30.15,ESE,112,1.0,6.0,66,0.00,,,0.00,weatherlink.com 1.10,2013-05-25 18:26:00,
2013-05-25 13:41:00,87.3,75.0,30.14,SSW,195,2.0,6.0,66,0.00,,,0.00,weatherlink.com 1.10,2013-05-25 18:41:00,
2013-05-25 13:56:00,82.5,75.0,30.14,SE,133,2.0,8.0,77,0.01,,,0.01,weatherlink.com 1.10,2013-05-25 18:56:00,
2013-05-25 14:11:00,80.5,75.0,30.14,SSE,157,2.0,8.0,83,0.02,,,0.02,weatherlink.com 1.10,2013-05-25 19:11:00,
2013-05-25 14:26:00,82.7,77.0,30.13,SW,217,6.0,8.0,82,0.02,,,0.02,weatherlink.com 1.10,2013-05-25 19:26:00,
2013-05-25 14:41:00,83.6,73.0,30.13,SSE,150,5.0,11.0,70,0.02,,,0.02,weatherlink.com 1.10,2013-05-25 19:41:00,
2013-05-25 14:56:00,85.5,74.0,30.12,SE,140,4.0,9.0,68,0.01,,,0.02,weatherlink.com 1.10,2013-05-25 19:56:00,
2013-05-25 15:11:00,87.0,74.0,30.12,SSE,154,8.0,10.0,65,0.00,,,0.02,weatherlink.com 1.10,2013-05-25 20:11:00,
2013-05-25 15:26:00,86.5,75.0,30.12,SW,214,1.0,8.0,69,0.00,,,0.02,weatherlink.com 1.10,2013-05-25 20:26:00,
2013-05-25 15:41:00,85.9,75.0,30.11,SSE,164,6.0,8.0,69,0.00,,,0.02,weatherlink.com 1.10,2013-05-25 20:41:00,
2013-05-25 15:56:00,85.6,74.0,30.11,ESE,119,5.0,7.0,69,0.00,,,0.02,weatherlink.com 1.10,2013-05-25 20:56:00,
2013-05-25 16:11:00,84.8,73.0,30.10,SE,134,4.0,9.0,68,0.00,,,0.02,weatherlink.com 1.10,2013-05-25 21:11:00,
2013-05-25 16:26:00,84.7,73.0,30.10,South,172,4.0,7.0,67,0.00,,,0.02,weatherlink.com 1.10,2013-05-25 21:26:00,
2013-05-25 16:41:00,84.7,73.0,30.09,South,184,5.0,11.0,67,0.00,,,0.02,weatherlink.com 1.10,2013-05-25 21:41:00,
2013-05-25 16:56:00,84.2,73.0,30.10,SSE,167,7.0,9.0,70,0.00,,,0.02,weatherlink.com 1.10,2013-05-25 21:56:00,
2013-05-25 17:11:00,83.5,74.0,30.10,SSW,193,5.0,8.0,74,0.00,,,0.02,weatherlink.com 1.10,2013-05-25 22:11:00,
2013-05-25 17:26:00,82.9,74.0,30.10,South,184,4.0,10.0,75,0.00,,,0.02,weatherlink.com 1.10,2013-05-25 22:26:00,
2013-05-25 17:41:00,82.3,73.0,30.09,South,170,4.0,11.0,74,0.00,,,0.02,weatherlink.com 1.10,2013-05-25 22:41:00,
2013-05-25 17:56:00,82.0,72.0,30.09,South,174,7.0,8.0,71,0.00,,,0.02,weatherlink.com 1.10,2013-05-25 22:56:00,
2013-05-25 18:11:00,81.7,73.0,30.09,ESE,115,4.0,10.0,75,0.00,,,0.02,weatherlink.com 1.10,2013-05-25 23:11:00,
2013-05-25 18:26:00,81.4,74.0,30.08,South,173,8.0,8.0,78,0.00,,,0.02,weatherlink.com 1.10,2013-05-25 23:26:00,
2013-05-25 18:41:00,81.0,74.0,30.09,SSE,164,3.0,9.0,79,0.00,,,0.02,weatherlink.com 1.10,2013-05-25 23:41:00,
2013-05-25 18:56:00,80.6,72.0,30.09,South,169,3.0,10.0,76,0.00,,,0.02,weatherlink.com 1.10,2013-05-25 23:56:00,
2013-05-25 19:11:00,80.5,72.0,30.08,SSE,156,2.0,7.0,76,0.00,,,0.02,weatherlink.com 1.10,2013-05-26 00:11:00,
2013-05-25 19:26:00,79.9,72.0,30.09,SSW,203,1.0,5.0,77,0.00,,,0.02,weatherlink.com 1.10,2013-05-26 00:26:00,
2013-05-25 19:41:00,79.5,72.0,30.09,SSE,155,3.0,5.0,77,0.00,,,0.02,weatherlink.com 1.10,2013-05-26 00:41:00,
2013-05-25 19:57:00,78.7,72.0,30.10,ESE,115,0.0,1.0,80,0.00,,,0.02,weatherlink.com 1.10,2013-05-26 00:57:00,
2013-05-25 20:11:00,78.1,72.0,30.11,ESE,103,0.0,0.0,81,0.00,,,0.02,weatherlink.com 1.10,2013-05-26 01:11:00,
2013-05-25 20:26:00,77.3,72.0,30.11,ESE,103,0.0,1.0,84,0.00,,,0.02,weatherlink.com 1.10,2013-05-26 01:26:00,
2013-05-25 20:41:00,76.6,71.0,30.12,NE,36,3.0,8.0,82,0.00,,,0.02,weatherlink.com 1.10,2013-05-26 01:41:00,
2013-05-25 20:56:00,74.9,69.0,30.12,ENE,61,4.0,9.0,83,0.00,,,0.02,weatherlink.com 1.10,2013-05-26 01:56:00,
2013-05-25 21:11:00,74.5,69.0,30.12,ENE,67,2.0,5.0,82,0.00,,,0.02,weatherlink.com 1.10,2013-05-26 02:11:00,
2013-05-25 21:26:00,74.2,68.0,30.12,ENE,70,0.0,4.0,82,0.00,,,0.02,weatherlink.com 1.10,2013-05-26 02:26:00,
2013-05-25 21:41:00,73.8,68.0,30.12,NE,51,2.0,4.0,81,0.00,,,0.02,weatherlink.com 1.10,2013-05-26 02:41:00,
2013-05-25 21:56:00,73.4,67.0,30.12,ENE,78,1.0,4.0,81,0.00,,,0.02,weatherlink.com 1.10,2013-05-26 02:56:00,
2013-05-25 22:11:00,72.9,67.0,30.11,East,91,1.0,2.0,81,0.00,,,0.02,weatherlink.com 1.10,2013-05-26 03:11:00,
2013-05-25 22:26:00,72.4,67.0,30.10,East,91,1.0,2.0,82,0.00,,,0.02,weatherlink.com 1.10,2013-05-26 03:26:00,
2013-05-25 22:41:00,71.8,67.0,30.11,East,91,0.0,1.0,84,0.00,,,0.02,weatherlink.com 1.10,2013-05-26 03:41:00,
2013-05-25 22:56:00,71.4,67.0,30.11,East,92,1.0,2.0,85,0.00,,,0.02,weatherlink.com 1.10,2013-05-26 03:56:00,
2013-05-25 23:11:00,71.2,67.0,30.11,East,92,0.0,0.0,85,0.00,,,0.02,weatherlink.com 1.10,2013-05-26 04:11:00,
2013-05-25 23:26:00,70.8,67.0,30.10,East,91,0.0,0.0,86,0.00,,,0.02,weatherlink.com 1.10,2013-05-26 04:26:00,
2013-05-25 23:41:00,70.2,67.0,30.10,East,92,0.0,0.0,88,0.00,,,0.02,weatherlink.com 1.10,2013-05-26 04:41:00,
2013-05-25 23:56:00,70.3,67.0,30.09,East,92,0.0,0.0,88,0.00,,,0.02,weatherlink.com 1.10,2013-05-26 04:56:00,